Temp
63 63 62 62 62 62 62 62 62 62 62 63 63 63 63 62 63 77 90 83 85 73 76 94 95 96 96 94 95 96 88 88 83 85 87 94 92 96 98 92 92 93 92 95 93
62 62 62 62 62 61 61 62 62 62 62 62 62 62 62 62 83 92 80 76 75 75 94 93 91 94 94 93 94 92 87 85 92 92 91 94 94 95 91 91 90 87 90 93 91
62 62 62 62 62 61 61 61 62 62 62 62 62 62 62 66 86 90 76 75 74 79 98 98 97 94 91 94 92 91 87 91 92 94 96 94 96 98 93 92 94 90 88 89 89
61 62 61 61 61 61 61 61 62 62 62 62 62 62 62 83 78 92 76 75 76 94 96 93 92 89 89 87 93 86 91 92 94 95 94 94 98 94 94 95 98 97 94 91 89
61 61 61 61 60 60 61 61 61 61 61 61 62 62 79 85 88 92 77 78 91 94 94 92 89 90 86 91 90 87 91 93 95 95 96 97 94 93 94 97 98 96 93 91 91
60 60 60 60 60 60 60 60 60 60 61 61 62 61 79 77 95 94 92 91 95 94 93 94 91 93 89 89 88 92 93 93 94 95 98 93 96 92 93 96 94 92 92 92 91
60 60 60 60 60 60 60 59 59 60 61 62 63 73 80 83 95 95 93 94 95 94 91 95 94 90 90 87 92 91 85 91 93 95 94 95 91 90 94 95 93 92 92 92 91
60 60 60 60 60 60 60 59 59 60 62 63 64 78 78 95 97 93 95 93 94 96 94 96 95 92 89 90 88 86 87 83 94 93 94 92 86 95 95 94 93 93 92 91 92
59 59 60 61 60 60 59 58 60 62 63 64 75 79 79 81 87 95 94 91 93 93 93 94 93 89 88 83 81 83 80 83 86 93 92 91 88 94 94 93 94 93 92 91 91
59 58 58 60 59 59 58 57 66 62 71 77 80 75 85 84 89 90 94 94 90 90 87 87 88 83 85 83 73 78 79 83 83 89 91 89 89 94 96 93 93 94 93 92 91
58 58 58 58 59 58 63 81 78 76 79 78 79 81 81 89 91 89 92 89 91 87 80 85 80 76 83 84 85 82 82 81 87 88 85 86 87 90 93 92 91 92 93 93 92
58 58 58 58 58 58 67 74 67 68 65 79 80 79 85 87 78 86 92 84 83 78 84 79 75 85 85 83 81 81 79 80 85 87 84 85 85 87 87 87 87 87 89 91 93
57 57 57 58 57 65 71 70 76 75 66 74 81 80 82 85 78 84 88 87 82 79 80 77 81 86 81 80 78 80 79 80 79 83 85 83 81 82 83 86 86 86 86 87 88
57 56 57 57 59 72 72 74 78 74 63 71 71 77 82 84 76 90 91 87 84 79 80 81 85 79 79 78 81 76 84 81 80 78 74 84 72 80 81 82 82 83 83 85 85
56 56 56 57 62 71 71 77 78 72 51 74 74 86 83 79 85 83 93 87 79 80 80 76 79 77 76 78 83 78 82 81 81 79 80 78 75 79 83 77 78 81 82 83 84
56 56 56 65 68 72 75 77 73 58 49 69 75 73 73 76 80 85 84 89 89 81 80 82 85 84 83 84 83 85 80 79 80 80 68 78 77 75 77 73 77 81 82 82 83
57 57 59 63 68 75 76 72 57 53 69 67 69 73 74 72 75 77 76 74 73 68 68 76 78 84 85 80 83 80 76 68 65 67 68 78 75 71 76 77 78 78 80 81 81
55 54 60 67 73 71 71 62 48 60 65 72 71 72 69 75 75 76 75 72 78 77 74 68 65 78 83 81 77 77 77 73 60 64 70 76 70 73 79 80 81 81 81 79 77
53 66 68 72 71 70 64 51 55 62 66 66 70 66 68 74 75 74 75 74 78 80 70 69 69 83 84 85 85 78 74 84 72 75 73 74 72 75 79 79 79 78 78 72 74
61 65 70 73 72 65 57 52 60 66 66 67 61 66 65 70 69 72 73 79 78 82 84 75 66 79 82 85 85 81 86 72 76 62 61 67 68 73 74 76 78 78 75 69 72
62 61 66 72 65 60 52 55 62 68 67 62 62 62 64 65 71 72 73 78 82 80 84 79 73 73 80 76 77 77 76 78 79 74 67 62 69 82 78 79 77 71 68 70 70
64 58 70 68 54 60 54 57 55 64 69 66 67 65 63 65 65 71 72 76 85 83 76 80 74 69 73 82 83 85 81 79 72 66 74 71 69 82 80 79 74 68 69 70 71
62 61 67 62 47 50 56 56 60 61 64 64 63 66 67 64 61 68 74 83 84 81 77 79 71 66 67 74 79 77 80 81 78 76 68 68 69 80 79 73 72 70 71 71 73
60 51 54 50 53 46 47 49 54 63 63 67 63 66 64 63 68 64 71 75 81 83 71 74 72 70 67 71 79 73 76 79 77 71 73 74 69 73 74 69 69 71 71 73 76
60 54 55 42 47 50 51 48 52 54 64 67 61 62 61 58 63 65 68 72 76 72 80 77 67 74 74 78 79 78 77 78 76 78 72 76 75 75 73 71 71 71 70 70 72
54 54 47 52 51 50 47 49 51 58 60 60 59 64 66 60 63 60 66 67 70 76 77 78 69 73 69 75 77 73 77 78 78 77 76 77 75 81 72 72 71 72 71 74 71
64 60 54 44 45 45 50 51 55 60 64 66 65 63 61 65 71 72 72 71 69 69 72 72 72 69 66 73 74 67 73 76 74 75 78 72 76 71 66 69 70 68 65 63 65
MSLP
1020.15 1020.23 1019.64 1019.23 1019.05 1018.42 1018.26 1017.60 1017.21 1016.88 1016.36 1015.71 1015.02 1014.32 1013.60 1013.23 1012.24 1011.75 1009.40 1009.83 1009.61 1010.14 1010.06 1009.46 1008.97 1008.52 1008.23 1007.24 1006.96 1006.18 1004.03 1002.73 1002.93 1002.81 1003.26 1003.73 1003.39 1004.20 1004.64 1004.96 1005.90 1006.43 1006.63 1007.40 1009.30
1019.94 1019.53 1019.31 1019.02 1018.72 1018.38 1018.09 1017.71 1017.22 1016.86 1016.24 1015.62 1014.92 1014.19 1013.40 1013.13 1011.26 1009.03 1009.60 1009.58 1009.83 1009.96 1009.32 1008.59 1008.06 1007.96 1007.04 1006.62 1006.34 1005.42 1003.71 1003.18 1003.49 1003.52 1003.25 1003.30 1003.40 1003.50 1004.26 1004.42 1005.30 1006.79 1007.76 1008.22 1009.37
1019.50 1019.20 1018.90 1018.77 1018.53 1018.16 1017.93 1017.66 1016.98 1016.64 1016.15 1015.57 1014.89 1014.09 1013.36 1012.85 1010.20 1008.63 1009.39 1009.45 1009.78 1009.74 1008.57 1008.13 1007.78 1007.44 1006.35 1006.04 1005.77 1005.04 1003.60 1003.71 1003.82 1003.92 1003.76 1003.35 1002.99 1003.35 1003.48 1003.16 1003.86 1005.30 1007.28 1008.36 1009.16
1019.57 1019.35 1018.91 1018.53 1018.29 1017.90 1017.65 1017.14 1016.79 1016.27 1016.05 1015.41 1015.02 1014.13 1013.12 1011.75 1009.03 1009.04 1009.58 1009.64 1009.68 1009.04 1008.53 1008.14 1007.69 1006.98 1006.02 1005.45 1005.25 1004.87 1004.36 1004.10 1003.79 1003.90 1003.77 1003.24 1003.19 1003.00 1003.26 1003.38 1004.22 1004.96 1006.55 1007.84 1008.66
1019.65 1019.51 1019.25 1018.81 1018.39 1017.77 1017.20 1016.64 1016.20 1015.83 1015.72 1015.20 1015.06 1014.40 1012.83 1010.44 1008.32 1009.05 1009.72 1009.84 1009.25 1008.72 1007.98 1007.63 1007.25 1006.56 1005.75 1005.18 1005.35 1004.96 1004.20 1004.11 1004.11 1003.90 1003.48 1003.34 1003.05 1002.94 1002.96 1003.70 1004.69 1005.46 1006.54 1007.50 1008.27
1019.56 1019.27 1018.97 1018.58 1018.21 1017.64 1017.04 1016.36 1015.78 1015.46 1015.12 1015.04 1014.85 1014.55 1012.93 1009.79 1008.49 1008.82 1008.97 1009.18 1008.44 1008.32 1007.84 1007.58 1007.08 1006.81 1006.01 1005.59 1005.25 1004.47 1004.33 1004.01 1003.84 1003.50 1003.07 1003.05 1002.49 1003.12 1003.31 1004.06 1004.78 1005.73 1006.39 1007.24 1007.97
1019.25 1019.01 1018.70 1018.40 1017.85 1017.43 1016.93 1016.27 1015.48 1014.88 1014.80 1014.47 1014.36 1013.79 1011.57 1009.00 1008.52 1008.72 1008.84 1008.48 1008.48 1008.07 1007.60 1007.61 1007.49 1007.30 1006.26 1005.70 1005.45 1004.99 1004.60 1003.88 1003.49 1003.20 1002.89 1003.07 1002.16 1002.33 1003.43 1004.06 1004.59 1005.36 1006.20 1006.98 1007.72
1019.23 1018.91 1018.48 1018.17 1017.83 1017.18 1016.58 1015.74 1014.85 1014.49 1014.07 1013.78 1013.87 1013.00 1009.89 1008.22 1008.49 1008.52 1008.38 1008.31 1008.52 1008.27 1008.01 1007.77 1007.85 1007.08 1006.63 1006.21 1005.65 1004.81 1004.22 1002.91 1002.27 1002.93 1002.76 1003.18 1001.05 1002.16 1003.42 1003.84 1004.20 1004.99 1005.84 1006.64 1007.39
1019.05 1018.66 1018.28 1017.83 1017.42 1017.00 1016.26 1015.27 1014.43 1014.05 1013.72 1013.58 1013.00 1011.72 1008.56 1008.79 1008.25 1007.66 1007.88 1007.49 1007.92 1008.09 1008.11 1007.95 1007.69 1006.74 1006.53 1005.68 1004.85 1004.24 1002.78 1002.31 1002.06 1002.76 1002.39 1002.57 1001.11 1002.36 1003.33 1003.69 1003.76 1004.82 1005.78 1006.46 1007.12
1018.97 1018.69 1018.22 1017.59 1017.16 1016.85 1016.15 1014.60 1013.35 1013.75 1013.20 1012.67 1012.03 1011.11 1008.00 1007.11 1007.49 1007.68 1007.70 1007.54 1007.24 1007.50 1007.62 1007.47 1006.85 1006.14 1005.47 1004.69 1003.35 1002.89 1002.86 1002.03 1001.92 1002.49 1002.59 1002.14 1001.83 1002.13 1002.80 1003.61 1003.98 1004.35 1005.42 1006.25 1006.99
1018.96 1018.53 1018.04 1017.64 1017.24 1016.73 1015.57 1012.78 1012.80 1012.28 1011.42 1009.92 1009.14 1007.93 1007.55 1007.32 1007.48 1007.03 1007.16 1007.29 1006.76 1006.74 1005.99 1006.31 1005.69 1004.70 1004.12 1004.25 1003.76 1003.42 1002.86 1002.21 1002.05 1003.02 1002.92 1002.33 1002.37 1002.63 1003.34 1003.82 1004.31 1004.65 1005.00 1005.70 1006.28
1018.85 1018.48 1017.96 1017.50 1017.18 1016.57 1015.56 1013.38 1014.18 1014.31 1011.72 1009.51 1008.69 1008.29 1007.68 1007.61 1007.09 1006.49 1006.77 1006.27 1006.04 1005.42 1005.39 1005.80 1004.60 1004.07 1004.38 1004.66 1004.59 1004.10 1003.42 1002.82 1002.77 1003.39 1003.62 1002.83 1002.94 1003.67 1004.46 1004.92 1005.48 1005.76 1005.74 1005.81 1005.96
1018.86 1018.40 1017.84 1017.33 1016.88 1016.00 1015.05 1014.74 1014.82 1014.26 1011.73 1008.02 1007.08 1006.56 1006.56 1007.06 1006.31 1005.35 1005.97 1005.30 1004.94 1004.66 1004.62 1004.00 1003.58 1004.04 1004.94 1004.67 1004.32 1003.84 1003.27 1002.94 1003.07 1003.44 1003.62 1003.53 1003.15 1003.92 1005.10 1005.50 1006.07 1006.64 1006.98 1006.89 1006.73
1018.95 1018.50 1018.00 1017.32 1017.19 1015.63 1014.68 1015.12 1014.82 1014.57 1010.91 1006.22 1005.93 1005.11 1005.52 1005.80 1005.03 1004.95 1005.22 1004.62 1004.20 1003.92 1004.13 1003.87 1003.90 1004.46 1004.35 1003.92 1004.05 1003.24 1003.58 1003.65 1003.49 1003.37 1002.43 1003.00 1002.32 1003.38 1004.83 1005.43 1006.49 1007.07 1007.54 1007.59 1007.50
1018.99 1018.51 1018.14 1017.79 1017.15 1015.09 1015.31 1015.01 1014.75 1014.29 1009.26 1004.92 1004.70 1004.97 1004.53 1004.24 1002.76 1003.52 1004.38 1004.27 1003.51 1003.41 1003.78 1003.34 1003.59 1004.09 1003.79 1003.63 1003.93 1003.43 1003.85 1003.66 1003.33 1003.00 1002.52 1002.65 1002.91 1002.86 1004.42 1005.56 1006.85 1007.63 1008.03 1008.23 1008.31
1019.00 1018.60 1018.26 1017.36 1016.62 1015.63 1015.47 1014.98 1014.47 1012.17 1007.15 1004.36 1004.21 1004.19 1004.26 1004.00 1003.05 1002.66 1003.52 1003.99 1003.52 1003.29 1003.82 1002.87 1003.67 1003.56 1003.33 1003.46 1003.83 1003.65 1003.88 1003.68 1003.48 1002.76 1002.41 1002.08 1002.59 1003.03 1004.71 1006.64 1007.40 1007.94 1008.43 1008.80 1008.85
1018.90 1018.64 1018.32 1017.65 1015.74 1015.88 1015.36 1014.16 1012.43 1009.09 1006.03 1004.21 1003.54 1003.44 1003.04 1002.84 1002.68 1002.70 1002.51 1002.91 1002.51 1002.62 1002.76 1003.02 1003.08 1003.22 1003.05 1003.12 1003.51 1003.66 1003.01 1002.37 1002.33 1001.88 1001.25 1002.29 1003.10 1004.66 1006.21 1007.31 1007.93 1008.39 1008.96 1009.44 1009.93
1018.67 1018.42 1017.47 1016.98 1016.39 1016.26 1015.05 1013.70 1010.24 1007.39 1006.11 1005.08 1004.18 1003.42 1002.52 1002.07 1001.87 1001.69 1001.67 1001.68 1002.00 1001.88 1001.40 1001.89 1002.33 1002.42 1002.74 1002.29 1002.27 1002.47 1002.08 1000.29 1000.35 1000.38 1000.73 1002.81 1002.63 1004.77 1006.75 1007.72 1008.40 1009.00 1009.59 1010.34 1010.90
1018.53 1017.43 1016.50 1016.15 1016.54 1016.26 1014.33 1012.17 1009.68 1007.96 1007.34 1005.75 1004.64 1003.44 1002.05 1001.54 1001.13 1001.06 1000.56 1000.54 1000.97 1001.24 1000.93 1001.03 1001.07 1001.46 1001.76 1002.16 1001.65 1001.42 1001.39 1000.93 1000.59 1000.66 1000.41 1001.80 1004.25 1005.96 1006.91 1007.60 1008.69 1009.52 1010.27 1011.39 1011.60
1017.86 1016.80 1015.73 1016.04 1016.23 1015.97 1014.24 1011.15 1009.53 1009.06 1008.78 1007.07 1005.10 1003.76 1001.87 1001.25 1001.05 1000.46 1000.03 1000.01 1000.27 1000.89 1000.94 1001.10 1001.09 1001.24 1001.56 1001.72 1001.51 1001.45 1000.97 1001.08 1000.54 1000.00 1000.47 1001.97 1003.33 1003.15 1006.05 1007.27 1008.59 1009.68 1011.06 1012.14 1012.40
1017.62 1015.90 1016.29 1016.41 1016.87 1015.49 1013.11 1011.62 1010.55 1009.85 1009.31 1008.15 1006.31 1005.06 1003.68 1002.02 1000.79 1000.06 999.40 999.42 999.88 1000.56 1000.80 1001.17 1001.12 1001.05 1001.23 1000.95 1000.28 1001.20 1000.56 1000.44 1000.11 1000.40 999.94 1001.24 1002.36 1003.75 1005.83 1007.30 1008.79 1010.98 1012.10 1012.47 1012.86
1016.96 1015.40 1016.63 1017.00 1016.27 1014.53 1013.23 1012.34 1011.87 1010.22 1009.39 1008.64 1007.58 1006.19 1004.97 1003.96 1002.04 1000.23 999.29 999.37 999.68 1000.34 1000.40 1001.19 1001.06 1000.42 1000.39 1000.33 1000.58 999.86 999.65 1000.06 999.85 1000.65 1000.71 1001.21 1002.95 1004.86 1006.79 1008.31 1010.00 1011.52 1012.44 1012.92 1013.09
1016.36 1015.93 1016.96 1017.08 1015.86 1014.67 1013.94 1012.83 1011.94 1010.56 1009.26 1008.39 1007.55 1006.90 1006.10 1004.66 1003.02 1001.55 1000.03 999.58 999.85 1000.02 1000.29 1001.00 1001.18 1000.10 1000.58 1001.00 1000.87 1000.15 1000.07 999.92 1000.30 1000.44 1000.78 1001.37 1002.88 1005.43 1007.23 1009.42 1010.68 1011.60 1012.43 1012.92 1012.93
1016.73 1016.00 1016.84 1017.70 1016.86 1016.18 1014.60 1013.29 1011.51 1010.61 1009.53 1008.36 1008.06 1007.68 1006.57 1005.23 1004.02 1002.77 1001.08 1000.90 1000.46 1000.11 1000.62 1001.23 1000.94 1000.04 999.30 999.11 999.34 999.94 1000.28 1000.34 1000.40 1000.42 1000.35 1001.21 1003.38 1005.57 1007.33 1009.58 1010.98 1011.91 1012.74 1012.81 1012.73
1016.76 1015.96 1016.15 1016.59 1016.40 1015.87 1015.08 1013.72 1011.51 1010.02 1009.09 1008.25 1007.98 1007.48 1006.97 1006.03 1004.30 1003.31 1002.89 1001.85 1001.27 1000.82 1000.88 1001.26 1000.88 1000.48 1000.16 999.39 999.46 999.63 999.92 1000.20 1000.31 1000.45 1000.54 1000.85 1002.57 1005.26 1007.77 1009.51 1010.97 1012.14 1013.00 1013.24 1013.24
1016.69 1016.37 1017.22 1016.54 1016.13 1015.54 1014.66 1013.11 1011.35 1009.68 1009.03 1007.59 1007.51 1007.06 1006.30 1006.12 1005.39 1004.59 1004.16 1003.36 1001.69 1001.69 1001.04 1001.38 1001.03 1000.74 1000.52 1000.45 1000.24 1000.30 1000.51 1000.64 1000.60 1001.01 1001.41 1002.20 1003.35 1005.65 1008.87 1010.39 1011.50 1012.26 1013.01 1013.01 1013.91
1016.55 1017.06 1017.17 1016.86 1016.02 1015.23 1013.59 1012.77 1010.95 1009.83 1008.57 1007.86 1007.22 1007.02 1006.70 1006.14 1005.55 1005.12 1004.78 1004.33 1003.82 1002.66 1001.61 1001.54 1000.82 1000.90 1000.37 1000.90 1000.99 1001.42 1001.45 1001.49 1001.99 1002.41 1002.09 1002.82 1004.57 1007.59 1009.52 1010.78 1011.91 1013.15 1014.03 1014.69 1014.96
Wind_Speed
13 11 13 13 14 14 15 16 16 16 17 18 20 23 22 18 17 7 2 5 3 11 9 10 9 8 8 6 5 4 7 1 4 2 7 5 2 3 4 4 6 6 2 11 21
14 14 13 15 14 14 15 16 15 15 16 18 20 23 22 18 13 1 5 4 8 12 14 14 11 10 10 7 5 9 8 3 4 5 5 3 6 5 5 7 7 7 6 15 21
15 15 15 15 15 16 15 16 16 16 16 18 19 23 23 19 10 6 7 7 10 9 7 8 7 11 11 7 8 5 7 4 4 2 8 8 10 5 8 5 4 9 13 17 19
13 13 16 15 17 16 17 17 17 17 16 16 18 21 24 8 4 6 6 9 10 7 10 8 9 12 12 11 8 9 6 5 1 4 7 11 13 10 7 3 7 5 15 18 19
9 11 12 13 15 17 19 19 19 18 17 15 16 17 13 11 5 7 5 7 9 6 9 10 11 12 13 11 7 12 6 8 8 9 11 12 12 8 4 3 6 11 14 16 15
8 9 10 13 13 15 17 19 21 20 18 15 14 13 8 14 5 2 2 7 8 10 8 9 6 7 10 8 13 5 12 10 7 10 11 11 11 3 4 5 9 11 12 13 15
12 10 8 11 14 15 17 19 21 21 18 17 12 6 9 14 0 4 4 3 5 8 8 9 3 9 1 10 6 8 10 12 12 10 8 7 11 7 7 7 9 10 11 12 14
12 12 11 11 12 16 18 21 24 22 20 13 7 7 9 1 3 8 8 8 6 7 5 6 6 8 8 2 6 12 11 13 12 7 6 6 3 13 6 7 8 10 10 12 15
11 12 13 12 13 15 19 24 25 17 8 4 7 7 11 8 8 5 6 8 11 8 6 7 9 7 8 11 9 10 13 18 11 7 4 10 6 9 4 3 7 8 8 10 13
12 12 13 14 13 15 19 26 14 7 5 5 4 7 10 5 5 4 4 9 8 13 10 11 10 11 12 13 13 13 15 8 11 8 11 13 9 2 4 4 4 3 8 7 8
12 13 13 13 12 15 17 9 7 9 8 12 1 9 1 3 5 8 8 12 10 15 14 15 12 15 15 15 13 6 10 11 11 7 5 6 4 5 7 6 5 4 4 6 8
12 13 14 14 11 16 11 4 5 6 10 14 18 19 19 7 6 12 10 15 14 16 17 10 17 14 5 6 11 12 13 14 6 5 8 6 8 5 8 10 11 10 7 4 7
11 12 14 13 12 9 6 6 6 6 9 10 19 20 20 18 14 13 16 18 17 19 18 16 4 12 11 12 13 13 14 13 10 7 8 7 12 9 8 10 9 11 8 5 5
12 11 13 15 7 6 1 3 8 6 8 7 8 9 13 13 14 21 18 15 14 19 18 16 13 6 16 16 14 14 11 9 11 11 11 12 11 12 8 9 11 11 11 10 8
13 11 11 6 8 4 6 8 10 5 8 8 10 5 7 19 8 21 20 17 18 15 15 14 13 15 14 14 12 10 2 11 13 13 14 12 10 11 9 7 11 11 12 11 10
12 11 11 4 5 6 8 10 5 8 10 5 8 11 13 19 10 17 24 17 16 16 15 11 5 14 14 10 11 6 7 6 8 11 11 16 12 9 5 5 8 10 12 12 13
12 10 9 6 4 9 9 5 8 10 4 7 6 10 15 13 18 18 26 25 16 19 16 17 13 10 9 14 13 12 12 9 10 9 5 7 9 13 10 8 8 10 11 12 14
10 7 5 6 5 8 6 7 12 2 15 3 6 5 12 12 19 20 27 26 24 19 14 17 17 20 15 15 14 18 16 9 11 12 10 7 7 10 9 7 8 10 11 13 13
9 4 5 4 8 6 7 12 9 12 9 10 13 13 11 14 10 17 23 25 25 21 11 17 12 22 14 16 15 15 14 13 4 1 7 9 8 7 8 9 9 10 13 13 12
3 4 2 2 6 6 6 16 16 3 12 13 12 3 7 16 13 19 20 24 25 22 14 8 13 13 18 11 11 9 16 11 10 9 11 7 13 11 14 11 11 10 13 10 10
3 5 7 5 3 7 11 14 17 15 9 9 11 10 3 7 12 20 20 10 24 23 18 8 10 10 17 15 16 10 11 10 6 5 8 8 9 14 12 11 12 10 8 9 10
2 3 3 6 6 5 9 7 7 17 12 11 12 8 7 7 8 10 18 10 19 22 22 11 7 14 21 7 7 18 15 15 9 11 7 8 9 11 12 12 11 10 8 8 8
2 3 5 3 6 8 11 12 17 19 22 9 8 4 8 8 3 6 9 12 18 22 20 13 7 11 9 9 7 11 7 7 3 4 7 9 9 13 13 11 9 10 8 7 6
3 2 2 2 4 5 10 13 18 15 22 18 9 10 13 10 4 2 7 4 9 20 12 12 5 12 11 15 17 12 12 12 12 8 8 10 20 18 16 13 10 9 8 5 7
3 1 2 3 8 12 11 12 18 18 19 16 18 17 15 9 6 9 9 5 6 8 15 13 9 10 3 5 8 13 15 14 15 14 9 5 13 19 15 12 11 9 7 4 6
3 3 1 6 8 10 12 13 19 17 20 20 20 12 9 9 7 11 12 8 6 8 14 15 11 9 5 5 10 9 8 9 5 7 4 7 11 18 14 13 9 8 5 5 10
2 1 1 3 6 7 11 17 13 16 15 19 14 18 21 17 16 14 13 14 13 7 17 15 9 12 10 9 11 11 9 8 6 2 7 11 13 17 15 12 9 8 7 5 3
Wind_Direction
353 347 341 349 339 345 335 335 336 334 329 328 328 322 324 327 305 221 47 46 105 173 246 159 189 176 201 201 243 270 248 198 103 130 100 122 313 92 17 149 210 170 78 123 144
347 347 349 341 342 341 334 332 331 329 330 327 327 319 322 329 298 282 29 118 142 180 190 192 188 192 201 203 204 246 263 96 50 74 28 339 310 343 239 181 180 150 111 134 153
344 341 342 338 339 334 333 327 331 329 329 325 325 318 320 317 269 72 30 142 166 201 223 225 219 214 228 207 186 188 260 125 167 318 320 313 298 348 264 259 208 188 162 155 166
334 336 334 334 330 330 326 328 327 327 322 323 320 317 317 282 328 56 65 137 158 244 183 186 202 210 231 211 188 232 240 234 226 303 292 309 326 306 277 15 18 121 157 162 174
317 323 326 322 321 324 324 325 323 320 315 320 314 318 315 299 281 100 140 162 191 184 199 198 216 222 226 223 202 235 222 246 252 283 288 308 290 300 282 104 117 129 155 166 178
309 308 315 318 318 319 319 319 316 309 315 312 310 307 270 287 89 102 127 185 212 208 203 210 228 228 271 236 224 181 244 252 264 272 281 284 305 269 96 150 138 151 160 168 179
318 303 310 311 316 315 313 310 304 306 307 304 300 258 265 267 171 154 213 235 209 222 207 216 246 210 169 222 219 233 243 221 233 254 278 301 260 214 119 171 163 171 167 169 180
322 313 310 313 312 314 314 308 300 305 302 294 246 220 268 112 249 241 217 217 203 206 235 195 217 236 239 43 207 226 229 237 213 217 218 247 164 88 124 187 198 190 171 174 182
327 321 309 309 312 315 312 301 298 297 288 230 203 244 266 122 221 188 206 220 180 177 169 168 207 231 188 222 208 207 235 212 171 200 210 230 280 99 88 248 240 192 191 194 182
329 325 319 307 313 318 310 289 290 269 213 225 259 246 222 224 141 200 207 196 172 163 164 186 206 213 217 211 219 210 220 215 229 169 218 203 254 327 31 313 300 246 201 207 200
331 326 319 310 318 323 317 288 223 194 216 248 351 255 207 208 213 196 172 191 185 183 190 194 209 214 210 216 256 277 247 246 202 120 253 217 252 14 10 8 350 307 270 215 207
332 330 322 317 324 318 285 346 49 357 292 266 249 250 260 281 267 206 184 191 195 200 202 177 221 219 245 205 220 225 229 226 205 207 262 183 246 80 35 44 33 15 348 271 224
334 329 328 319 329 283 331 64 354 316 263 262 232 236 229 212 228 214 200 208 202 207 196 214 185 200 209 202 214 219 232 231 242 161 226 258 233 182 99 71 46 33 11 5 320
331 331 329 323 283 351 55 38 335 311 272 217 201 231 205 196 224 221 201 198 206 209 201 227 151 194 208 221 216 225 210 249 237 229 237 192 250 163 147 89 50 34 25 19 15
331 327 332 353 324 295 18 325 324 238 270 105 142 93 174 196 137 191 196 207 209 203 189 197 208 203 201 217 205 245 165 236 229 227 247 203 242 127 159 74 44 33 31 32 35
327 327 328 199 237 336 321 313 247 225 241 169 148 180 176 211 214 150 183 207 226 200 212 212 198 214 206 184 201 187 192 186 216 222 219 232 227 99 95 56 53 45 41 38 47
325 323 300 312 351 335 310 257 213 247 76 172 206 186 208 181 207 184 180 192 189 194 199 214 184 191 222 189 181 201 189 183 200 197 241 145 209 69 100 76 48 50 55 52 46
316 301 192 229 279 309 284 229 235 15 245 39 282 246 213 192 208 194 187 190 207 201 188 201 201 203 184 221 186 202 205 238 211 204 157 161 195 112 101 89 70 73 72 57 51
300 252 252 252 223 266 236 213 246 272 350 302 290 255 198 200 201 194 199 198 195 196 214 196 223 182 208 202 225 181 222 250 276 6 215 134 80 132 155 112 93 86 75 58 44
280 279 268 164 183 236 232 238 221 259 323 322 276 328 264 191 203 198 192 202 191 199 204 195 204 191 184 196 220 248 204 201 230 174 218 168 173 141 171 137 122 103 77 71 67
245 253 64 88 182 221 236 233 235 254 285 308 332 301 330 326 231 197 186 183 188 192 202 170 237 170 167 203 187 185 208 233 260 302 231 167 201 116 137 138 122 93 86 75 72
295 226 79 154 224 233 246 242 281 253 245 265 295 304 312 329 253 243 211 177 185 189 194 178 234 172 199 172 294 206 211 200 220 176 252 318 102 135 135 126 112 113 98 86 76
263 56 104 287 239 229 263 267 244 248 243 248 253 291 321 323 283 252 238 192 191 187 191 167 212 178 158 168 184 216 211 212 247 303 169 256 134 153 137 125 136 127 111 97 87
266 217 187 170 226 311 300 257 250 230 256 245 253 283 281 323 333 255 191 72 228 188 169 175 191 239 200 197 185 186 193 204 209 228 235 231 131 165 153 150 138 123 107 88 80
230 254 322 195 233 236 252 284 258 237 236 236 238 250 268 297 317 53 22 326 176 178 175 194 207 216 4 119 184 203 201 200 220 232 241 202 168 171 154 156 143 122 115 103 60
286 285 69 298 287 255 229 245 249 231 240 232 237 261 236 245 305 322 332 340 292 186 198 206 212 209 158 183 169 164 173 186 189 152 152 148 112 138 129 134 148 135 124 76 42
218 191 41 264 264 228 228 233 256 262 244 240 258 232 252 268 292 301 287 273 265 298 194 185 178 197 170 181 163 164 152 148 117 139 161 162 145 137 153 160 150 117 81 81 57